Location: ??????
(55.7522°N, 37.6156°E)
Time: 17:15:22
(UTC+00:00)

Cosmos 1733 Rocket - Pass Details

Date: 14 June 2025
Orbit: 597 x 622 km, 82.5° (Epoch: 12 July)

Event Time Altitude Azimuth Distance (km) Brightness Sun altitude
Rises 19:57:24 0° 348° (NNW) 2,907 8.6 -8.5°
Reaches altitude 10° 19:59:40 10° 350° (N) 1,993 7.2 -8.6°
Maximum altitude 20:04:05 77° 77° (ENE) 636 3.1 -8.9°
Enters shadow 20:08:06 12° 163° (SSE) 1,830 4.8 -9.0°
